^^

..:: Storico WU ::..




Lo storico viene creato da WUnderground con i dati che la stazione Meteomincio invia al loro server. L' aggiornamento viene fatto ogni 5 minuti circa, tuttavia possono esserci intervalli pił ampi a causa di errori, interruzioni di servizio o problemi nell' invio tramite FTP.


Storico stazione MeteoMincio
Giorno Sommario per Giugno 21, 2022 Unità:  Inglese    Metrico   Entrambi
Giorno Settimana Mese Anno
  Max: Min: Media:
Temperatura: 93.2 °F 69.8 °F 82.2 °F
Dew Point: 71.6 °F 60.8 °F 66.6 °F
Umidità: 85% 42% 61%
Velocità vento: 8.1mph 0mph 3mph
Raffica: 13mph - -
Direzione- - SSW
Pressione: 29.9 in 29.8 in -
Precipitazioni: 0 in    
 
 
Tabulato Dati per Giugno 21, 2022
Ora Temperatura Dew Point Pressione Direzione Velocità vento Raffica Umidità Intensità pioggia (oraria) Info solare Situazione
00:04 77 °F 62.6 °F 29.8 in West 3.7 mph 5 mph 63% 0 in 0.00 W/m2 unknown
00:09 75.2 °F 62.6 °F 29.8 in West 3.1 mph 5 mph 63% 0 in 0.00 W/m2 unknown
00:14 75.2 °F 62.6 °F 29.8 in West 3.1 mph 3.7 mph 64% 0 in 0.00 W/m2 unknown
00:19 75.2 °F 62.6 °F 29.8 in WNW 2.5 mph 3.7 mph 64% 0 in 0.00 W/m2 unknown
00:24 75.2 °F 60.8 °F 29.8 in WNW 2.5 mph 5 mph 63% 0 in 0.00 W/m2 unknown
00:29 77 °F 60.8 °F 29.8 in West 2.5 mph 5 mph 61% 0 in 0.00 W/m2 unknown
00:34 77 °F 60.8 °F 29.8 in WSW 3.1 mph 5 mph 58% 0 in 0.00 W/m2 unknown
00:39 77 °F 60.8 °F 29.8 in WSW 3.1 mph 5 mph 55% 0 in 0.00 W/m2 unknown
00:44 78.8 °F 60.8 °F 29.8 in West 1.9 mph 5 mph 55% 0 in 0.00 W/m2 unknown
00:49 77 °F 60.8 °F 29.8 in West 1.2 mph 3.1 mph 58% 0 in 0.00 W/m2 unknown
00:54 77 °F 60.8 °F 29.8 in NNE 1.2 mph 2.5 mph 60% 0 in 0.00 W/m2 unknown
00:59 77 °F 60.8 °F 29.8 in NE 1.9 mph 2.5 mph 61% 0 in 0.00 W/m2 unknown
01:04 75.2 °F 60.8 °F 29.8 in ENE 2.5 mph 3.7 mph 61% 0 in 0.00 W/m2 unknown
01:09 75.2 °F 60.8 °F 29.8 in ENE 2.5 mph 3.7 mph 62% 0 in 0.00 W/m2 unknown
01:14 75.2 °F 60.8 °F 29.8 in ENE 2.5 mph 3.7 mph 63% 0 in 0.00 W/m2 unknown
01:19 75.2 °F 60.8 °F 29.8 in ENE 1.9 mph 3.7 mph 63% 0 in 0.00 W/m2 unknown
01:24 75.2 °F 60.8 °F 29.8 in ENE 1.9 mph 3.7 mph 63% 0 in 0.00 W/m2 unknown
01:29 75.2 °F 60.8 °F 29.8 in ENE 1.2 mph 3.1 mph 63% 0 in 0.00 W/m2 unknown
01:34 73.4 °F 60.8 °F 29.8 in ENE 0.6 mph 1.2 mph 63% 0 in 0.00 W/m2 unknown
01:39 73.4 °F 60.8 °F 29.8 in ENE 1.2 mph 2.5 mph 64% 0 in 0.00 W/m2 unknown
01:44 73.4 °F 60.8 °F 29.9 in ENE 1.2 mph 2.5 mph 64% 0 in 0.00 W/m2 unknown
01:49 73.4 °F 60.8 °F 29.9 in ENE 1.2 mph 2.5 mph 65% 0 in 0.00 W/m2 unknown
01:54 73.4 °F 60.8 °F 29.9 in Calm     65% 0 in 0.00 W/m2 unknown
01:59 73.4 °F 60.8 °F 29.9 in Calm     65% 0 in 0.00 W/m2 unknown
02:04 73.4 °F 60.8 °F 29.9 in SSE 0.6 mph 2.5 mph 67% 0 in 0.00 W/m2 unknown
02:09 73.4 °F 62.6 °F 29.9 in SSE 1.2 mph 2.5 mph 68% 0 in 0.00 W/m2 unknown
02:11 73.4 °F 62.6 °F 29.9 in SSE 1.2 mph 2.5 mph 68% 0 in 0.00 W/m2 unknown
02:19 73.4 °F 62.6 °F 29.9 in SSE 1.2 mph 2.5 mph 68% 0 in 0.00 W/m2 unknown
02:24 73.4 °F 60.8 °F 29.8 in SSE 1.2 mph 1.9 mph 68% 0 in 0.00 W/m2 unknown
02:29 73.4 °F 60.8 °F 29.8 in Calm   1.2 mph 68% 0 in 0.00 W/m2 unknown
02:34 73.4 °F 62.6 °F 29.8 in Calm   1.2 mph 69% 0 in 0.00 W/m2 unknown
02:39 73.4 °F 62.6 °F 29.8 in Calm     69% 0 in 0.00 W/m2 unknown
02:44 73.4 °F 62.6 °F 29.8 in Calm     70% 0 in 0.00 W/m2 unknown
02:49 73.4 °F 62.6 °F 29.8 in Calm     72% 0 in 0.00 W/m2 unknown
02:54 73.4 °F 62.6 °F 29.8 in Calm     73% 0 in 0.00 W/m2 unknown
02:59 71.6 °F 62.6 °F 29.8 in Calm     74% 0 in 0.00 W/m2 unknown
03:04 71.6 °F 62.6 °F 29.8 in Calm   1.2 mph 74% 0 in 0.00 W/m2 unknown
03:09 71.6 °F 62.6 °F 29.8 in Calm   1.2 mph 75% 0 in 0.00 W/m2 unknown
03:14 71.6 °F 62.6 °F 29.8 in Calm   1.2 mph 75% 0 in 0.00 W/m2 unknown
03:19 71.6 °F 62.6 °F 29.8 in Calm   1.2 mph 75% 0 in 0.00 W/m2 unknown
03:24 71.6 °F 62.6 °F 29.8 in Calm   1.2 mph 76% 0 in 0.00 W/m2 unknown
03:28 71.6 °F 64.4 °F 29.8 in SSE 0.6 mph 1.2 mph 76% 0 in 0.00 W/m2 unknown
03:33 71.6 °F 62.6 °F 29.8 in SSE 0.6 mph 1.2 mph 76% 0 in 0.00 W/m2 unknown
03:39 71.6 °F 62.6 °F 29.8 in South 1.2 mph 2.5 mph 77% 0 in 0.00 W/m2 unknown
03:44 69.8 °F 62.6 °F 29.8 in SSW 1.2 mph 2.5 mph 77% 0 in 0.00 W/m2 unknown
03:49 69.8 °F 62.6 °F 29.8 in SSW 1.2 mph 1.9 mph 76% 0 in 0.00 W/m2 unknown
03:51 69.8 °F 62.6 °F 29.8 in SSW 1.2 mph 1.2 mph 76% 0 in 0.00 W/m2 unknown
03:59 71.6 °F 62.6 °F 29.8 in SSW 1.2 mph 1.9 mph 77% 0 in 0.00 W/m2 unknown
04:03 71.6 °F 62.6 °F 29.8 in SSW 1.2 mph 2.5 mph 77% 0 in 0.00 W/m2 unknown
04:08 69.8 °F 62.6 °F 29.8 in SSW 0.6 mph 2.5 mph 77% 0 in 0.00 W/m2 unknown
04:14 69.8 °F 62.6 °F 29.9 in SSW 1.2 mph 2.5 mph 78% 0 in 0.00 W/m2 unknown
04:18 69.8 °F 62.6 °F 29.9 in SSW 1.2 mph 2.5 mph 78% 0 in 0.00 W/m2 unknown
04:24 69.8 °F 62.6 °F 29.8 in SSW 1.9 mph 3.7 mph 78% 0 in 0.00 W/m2 unknown
04:28 69.8 °F 62.6 °F 29.8 in SSW 1.9 mph 3.7 mph 78% 0 in 0.00 W/m2 unknown
04:32 69.8 °F 62.6 °F 29.8 in SSW 1.9 mph 3.1 mph 78% 0 in 0.00 W/m2 unknown
04:39 69.8 °F 62.6 °F 29.8 in SSW 1.9 mph 3.7 mph 79% 0 in 0.00 W/m2 unknown
04:43 69.8 °F 62.6 °F 29.8 in SSW 1.9 mph 3.1 mph 80% 0 in 0.00 W/m2 unknown
04:49 69.8 °F 64.4 °F 29.8 in SSW 1.9 mph 3.7 mph 81% 0 in 0.00 W/m2 unknown
04:54 69.8 °F 64.4 °F 29.8 in SSW 1.9 mph 3.7 mph 82% 0 in 0.00 W/m2 unknown
04:58 69.8 °F 64.4 °F 29.8 in SSW 1.9 mph 3.7 mph 82% 0 in 0.00 W/m2 unknown
05:03 69.8 °F 64.4 °F 29.8 in SW 1.9 mph 2.5 mph 81% 0 in 0.00 W/m2 unknown
05:08 69.8 °F 64.4 °F 29.9 in WSW 1.2 mph 2.5 mph 81% 0 in 0.00 W/m2 unknown
05:13 69.8 °F 64.4 °F 29.9 in WSW 1.2 mph 2.5 mph 83% 0 in 0.00 W/m2 unknown
05:17 69.8 °F 64.4 °F 29.9 in WSW 1.2 mph 2.5 mph 83% 0 in 0.00 W/m2 unknown
05:24 69.8 °F 64.4 °F 29.9 in WSW 1.2 mph 2.5 mph 84% 0 in 0.00 W/m2 unknown
05:29 69.8 °F 64.4 °F 29.8 in SW 1.2 mph 2.5 mph 85% 0 in 0.00 W/m2 unknown
05:34 69.8 °F 64.4 °F 29.9 in SW 1.9 mph 3.7 mph 85% 0 in 0.00 W/m2 unknown
05:39 69.8 °F 64.4 °F 29.9 in WSW 1.9 mph 3.7 mph 85% 0 in 5.00 W/m2 unknown
05:44 69.8 °F 64.4 °F 29.9 in WSW 1.2 mph 3.1 mph 85% 0 in 7.00 W/m2 unknown
05:49 69.8 °F 64.4 °F 29.9 in WSW 1.2 mph 2.5 mph 85% 0 in 11.00 W/m2 unknown
05:54 69.8 °F 64.4 °F 29.9 in WSW 1.2 mph 2.5 mph 85% 0 in 14.00 W/m2 unknown
05:59 69.8 °F 64.4 °F 29.9 in WSW 1.2 mph 1.9 mph 85% 0 in 19.00 W/m2 unknown
06:03 69.8 °F 64.4 °F 29.9 in Calm   1.2 mph 85% 0 in 21.00 W/m2 unknown
06:09 69.8 °F 64.4 °F 29.9 in Calm     84% 0 in 21.00 W/m2 unknown
06:14 69.8 °F 64.4 °F 29.9 in Calm     84% 0 in 32.00 W/m2 unknown
06:19 69.8 °F 64.4 °F 29.9 in Calm     84% 0 in 35.00 W/m2 unknown
06:21 69.8 °F 64.4 °F 29.9 in Calm     84% 0 in 35.00 W/m2 unknown
06:29 69.8 °F 66.2 °F 29.9 in Calm     84% 0 in 44.00 W/m2 unknown
06:34 71.6 °F 66.2 °F 29.9 in Calm   1.2 mph 84% 0 in 53.00 W/m2 unknown
06:39 71.6 °F 66.2 °F 29.9 in WSW 0.6 mph 2.5 mph 83% 0 in 60.00 W/m2 unknown
06:44 71.6 °F 66.2 °F 29.9 in WSW 0.6 mph 2.5 mph 83% 0 in 65.00 W/m2 unknown
06:49 71.6 °F 66.2 °F 29.9 in WSW 1.2 mph 1.9 mph 82% 0 in 74.00 W/m2 unknown
06:54 71.6 °F 66.2 °F 29.9 in WSW 1.2 mph 2.5 mph 82% 0 in 84.00 W/m2 unknown
06:59 71.6 °F 66.2 °F 29.9 in WSW 1.2 mph 2.5 mph 82% 0 in 95.00 W/m2 unknown
07:04 71.6 °F 66.2 °F 29.9 in WSW 1.2 mph 2.5 mph 82% 0 in 107.00 W/m2 unknown
07:09 73.4 °F 66.2 °F 29.9 in WSW 1.2 mph 2.5 mph 82% 0 in 116.00 W/m2 unknown
07:14 73.4 °F 66.2 °F 29.9 in WSW 1.2 mph 1.2 mph 82% 0 in 118.00 W/m2 unknown
07:19 73.4 °F 68 °F 29.9 in WNW 1.2 mph 2.5 mph 82% 0 in 139.00 W/m2 unknown
07:24 73.4 °F 68 °F 29.9 in NW 1.2 mph 2.5 mph 80% 0 in 148.00 W/m2 unknown
07:29 75.2 °F 68 °F 29.9 in NW 1.2 mph 1.9 mph 79% 0 in 162.00 W/m2 unknown
07:34 75.2 °F 68 °F 29.9 in Calm   1.2 mph 79% 0 in 171.00 W/m2 unknown
07:39 75.2 °F 68 °F 29.9 in Calm   1.2 mph 76% 0 in 181.00 W/m2 unknown
07:43 75.2 °F 68 °F 29.9 in West 0.6 mph 2.5 mph 76% 0 in 190.00 W/m2 unknown
07:49 75.2 °F 66.2 °F 29.9 in WSW 1.2 mph 2.5 mph 75% 0 in 204.00 W/m2 unknown
07:54 75.2 °F 66.2 °F 29.9 in WSW 1.9 mph 3.7 mph 75% 0 in 213.00 W/m2 unknown
07:59 75.2 °F 68 °F 29.9 in WSW 1.9 mph 3.7 mph 77% 0 in 227.00 W/m2 unknown
08:04 75.2 °F 68 °F 29.9 in WSW 1.9 mph 3.7 mph 77% 0 in 239.00 W/m2 unknown
08:09 77 °F 68 °F 29.9 in WSW 1.9 mph 3.7 mph 76% 0 in 258.00 W/m2 unknown
08:14 77 °F 68 °F 29.9 in West 2.5 mph 3.7 mph 75% 0 in 271.00 W/m2 unknown
08:19 77 °F 68 °F 29.9 in WSW 2.5 mph 3.7 mph 74% 0 in 287.00 W/m2 unknown
08:24 77 °F 68 °F 29.9 in WSW 2.5 mph 3.7 mph 74% 0 in 292.00 W/m2 unknown
08:29 77 °F 68 °F 29.9 in SW 1.9 mph 3.7 mph 73% 0 in 315.00 W/m2 unknown
08:34 78.8 °F 68 °F 29.9 in SSW 1.9 mph 3.7 mph 72% 0 in 322.00 W/m2 unknown
08:39 78.8 °F 68 °F 29.9 in West 1.9 mph 3.7 mph 72% 0 in 327.00 W/m2 unknown
08:44 78.8 °F 68 °F 29.9 in West 1.9 mph 3.7 mph 71% 0 in 348.00 W/m2 unknown
08:49 78.8 °F 68 °F 29.9 in West 1.2 mph 3.1 mph 70% 0 in 362.00 W/m2 unknown
08:54 78.8 °F 68 °F 29.9 in WSW 1.9 mph 3.7 mph 70% 0 in 373.00 W/m2 unknown
08:59 78.8 °F 69.8 °F 29.9 in West 2.5 mph 5 mph 70% 0 in 392.00 W/m2 unknown
09:04 80.6 °F 69.8 °F 29.9 in West 2.5 mph 5 mph 70% 0 in 397.00 W/m2 unknown
09:09 80.6 °F 69.8 °F 29.9 in West 3.1 mph 6.2 mph 70% 0 in 417.00 W/m2 unknown
09:14 80.6 °F 69.8 °F 29.9 in West 4.3 mph 6.2 mph 68% 0 in 431.00 W/m2 unknown
09:19 82.4 °F 69.8 °F 29.9 in NW 4.3 mph 6.8 mph 68% 0 in 448.00 W/m2 unknown
09:24 82.4 °F 68 °F 29.9 in WNW 4.3 mph 6.8 mph 66% 0 in 462.00 W/m2 unknown
09:29 82.4 °F 68 °F 29.9 in WNW 5 mph 8.1 mph 64% 0 in 471.00 W/m2 unknown
09:34 82.4 °F 69.8 °F 29.9 in WNW 5.6 mph 8.1 mph 65% 0 in 497.00 W/m2 unknown
09:39 82.4 °F 69.8 °F 29.9 in WNW 5.6 mph 8.1 mph 64% 0 in 520.00 W/m2 unknown
09:44 82.4 °F 69.8 °F 29.9 in WNW 5 mph 8.1 mph 64% 0 in 531.00 W/m2 unknown
09:49 82.4 °F 69.8 °F 29.9 in West 5 mph 8.1 mph 63% 0 in 547.00 W/m2 unknown
09:53 84.2 °F 69.8 °F 29.9 in WNW 5 mph 6.2 mph 63% 0 in 519.00 W/m2 unknown
09:59 84.2 °F 68 °F 29.9 in WNW 5 mph 6.2 mph 62% 0 in 503.00 W/m2 unknown
10:04 84.2 °F 69.8 °F 29.9 in NW 3.7 mph 6.2 mph 62% 0 in 527.00 W/m2 unknown
10:08 84.2 °F 68 °F 29.9 in NW 3.7 mph 8.1 mph 59% 0 in 531.00 W/m2 unknown
10:14 84.2 °F 68 °F 29.9 in WNW 3.7 mph 8.1 mph 58% 0 in 552.00 W/m2 unknown
10:19 84.2 °F 68 °F 29.9 in NNW 3.1 mph 8.1 mph 57% 0 in 559.00 W/m2 unknown
10:24 86 °F 68 °F 29.9 in NNW 5 mph 6.8 mph 57% 0 in 568.00 W/m2 unknown
10:29 86 °F 68 °F 29.9 in NNW 5 mph 6.8 mph 57% 0 in 548.00 W/m2 unknown
10:34 86 °F 68 °F 29.9 in NW 5 mph 6.2 mph 57% 0 in 571.00 W/m2 unknown
10:39 84.2 °F 66.2 °F 29.9 in WNW 5 mph 6.2 mph 55% 0 in 554.00 W/m2 unknown
10:44 86 °F 68 °F 29.9 in WNW 5 mph 6.8 mph 56% 0 in 649.00 W/m2 unknown
10:49 84.2 °F 66.2 °F 29.9 in WNW 4.3 mph 6.8 mph 55% 0 in 652.00 W/m2 unknown
10:54 86 °F 66.2 °F 29.9 in West 4.3 mph 6.8 mph 54% 0 in 691.00 W/m2 unknown
10:59 86 °F 66.2 °F 29.9 in WNW 3.1 mph 6.8 mph 54% 0 in 687.00 W/m2 unknown
11:04 86 °F 66.2 °F 29.9 in NW 3.1 mph 6.2 mph 54% 0 in 682.00 W/m2 unknown
11:09 86 °F 66.2 °F 29.9 in WNW 4.3 mph 6.2 mph 53% 0 in 654.00 W/m2 unknown
11:14 86 °F 66.2 °F 29.9 in WNW 4.3 mph 6.2 mph 52% 0 in 617.00 W/m2 unknown
11:17 86 °F 66.2 °F 29.9 in WNW 5 mph 6.2 mph 52% 0 in 635.00 W/m2 unknown
11:21 86 °F 66.2 °F 29.9 in WSW 5.6 mph 6.8 mph 53% 0 in 668.00 W/m2 unknown
11:28 86 °F 66.2 °F 29.9 in WSW 5 mph 6.8 mph 53% 0 in 698.00 W/m2 unknown
11:34 86 °F 66.2 °F 29.9 in WNW 5 mph 5 mph 53% 0 in 698.00 W/m2 unknown
11:39 86 °F 66.2 °F 29.9 in WSW 3.1 mph 5 mph 53% 0 in 691.00 W/m2 unknown
11:44 86 °F 66.2 °F 29.9 in WSW 3.7 mph 8.1 mph 53% 0 in 700.00 W/m2 unknown
11:48 86 °F 66.2 °F 29.9 in WSW 5 mph 8.1 mph 52% 0 in 717.00 W/m2 unknown
11:54 87.8 °F 68 °F 29.9 in WNW 5 mph 8.1 mph 53% 0 in 714.00 W/m2 unknown
11:59 87.8 °F 66.2 °F 29.9 in WNW 5 mph 6.2 mph 51% 0 in 766.00 W/m2 unknown
12:04 87.8 °F 68 °F 29.9 in WNW 3.7 mph 6.2 mph 53% 0 in 733.00 W/m2 unknown
12:09 86 °F 68 °F 29.9 in West 3.1 mph 5.6 mph 53% 0 in 722.00 W/m2 unknown
12:14 86 °F 68 °F 29.9 in WNW 3.7 mph 6.2 mph 53% 0 in 726.00 W/m2 unknown
12:19 87.8 °F 68 °F 29.9 in WSW 3.1 mph 6.8 mph 52% 0 in 705.00 W/m2 unknown
12:24 87.8 °F 68 °F 29.9 in WSW 5.6 mph 8.1 mph 52% 0 in 765.00 W/m2 unknown
12:29 87.8 °F 68 °F 29.9 in WSW 5.6 mph 8.1 mph 52% 0 in 770.00 W/m2 unknown
12:33 87.8 °F 66.2 °F 29.9 in West 5 mph 8.1 mph 51% 0 in 744.00 W/m2 unknown
12:39 87.8 °F 66.2 °F 29.9 in West 5 mph 8.1 mph 50% 0 in 795.00 W/m2 unknown
12:44 87.8 °F 68 °F 29.9 in WSW 3.1 mph 6.2 mph 51% 0 in 816.00 W/m2 unknown
12:49 87.8 °F 68 °F 29.9 in NW 3.7 mph 6.2 mph 52% 0 in 824.00 W/m2 unknown
12:54 89.6 °F 68 °F 29.9 in North 3.1 mph 6.2 mph 51% 0 in 809.00 W/m2 unknown
12:59 89.6 °F 68 °F 29.8 in West 2.5 mph 5 mph 50% 0 in 821.00 W/m2 unknown
13:04 89.6 °F 68 °F 29.8 in West 3.1 mph 5 mph 49% 0 in 821.00 W/m2 unknown
13:09 89.6 °F 68 °F 29.8 in West 5 mph 6.8 mph 50% 0 in 775.00 W/m2 unknown
13:14 89.6 °F 68 °F 29.8 in West 5 mph 6.8 mph 48% 0 in 844.00 W/m2 unknown
13:18 89.6 °F 68 °F 29.8 in West 5 mph 6.8 mph 50% 0 in 844.00 W/m2 unknown
13:20 89.6 °F 68 °F 29.8 in NW 4.3 mph 5.6 mph 50% 0 in 826.00 W/m2 unknown
13:29 89.6 °F 68 °F 29.8 in WNW 4.3 mph 6.2 mph 49% 0 in 835.00 W/m2 unknown
13:34 89.6 °F 66.2 °F 29.8 in SW 3.7 mph 6.2 mph 48% 0 in 838.00 W/m2 unknown
13:39 89.6 °F 68 °F 29.8 in WSW 4.3 mph 8.1 mph 50% 0 in 831.00 W/m2 unknown
13:44 89.6 °F 68 °F 29.8 in SW 5 mph 8.1 mph 48% 0 in 821.00 W/m2 unknown
13:49 89.6 °F 68 °F 29.8 in SSW 5 mph 8.1 mph 48% 0 in 819.00 W/m2 unknown
13:54 89.6 °F 66.2 °F 29.8 in WSW 4.3 mph 10.6 mph 47% 0 in 812.00 W/m2 unknown
13:59 89.6 °F 68 °F 29.8 in WSW 5 mph 10.6 mph 48% 0 in 812.00 W/m2 unknown
14:04 89.6 °F 66.2 °F 29.8 in WSW 5 mph 10.6 mph 47% 0 in 809.00 W/m2 unknown
14:09 89.6 °F 68 °F 29.8 in WSW 5 mph 9.9 mph 48% 0 in 816.00 W/m2 unknown
14:14 89.6 °F 66.2 °F 29.8 in WSW 5 mph 6.8 mph 46% 0 in 812.00 W/m2 unknown
14:19 89.6 °F 66.2 °F 29.8 in West 5 mph 6.8 mph 46% 0 in 768.00 W/m2 unknown
14:24 89.6 °F 66.2 °F 29.8 in WSW 3.7 mph 8.1 mph 46% 0 in 782.00 W/m2 unknown
14:29 89.6 °F 68 °F 29.8 in WNW 5 mph 8.1 mph 47% 0 in 791.00 W/m2 unknown
14:34 91.4 °F 68 °F 29.8 in WSW 5 mph 8.1 mph 47% 0 in 793.00 W/m2 unknown
14:39 91.4 °F 66.2 °F 29.8 in West 5 mph 6.8 mph 45% 0 in 791.00 W/m2 unknown
14:44 91.4 °F 66.2 °F 29.8 in WSW 4.3 mph 6.2 mph 44% 0 in 789.00 W/m2 unknown
14:49 91.4 °F 68 °F 29.8 in WNW 5 mph 6.2 mph 46% 0 in 788.00 W/m2 unknown
14:54 91.4 °F 66.2 °F 29.8 in WNW 5 mph 6.2 mph 44% 0 in 780.00 W/m2 unknown
14:59 91.4 °F 68 °F 29.8 in WNW 4.3 mph 8.1 mph 46% 0 in 766.00 W/m2 unknown
15:04 91.4 °F 66.2 °F 29.8 in WNW 5 mph 8.1 mph 44% 0 in 761.00 W/m2 unknown
15:09 91.4 °F 66.2 °F 29.8 in WNW 5 mph 8.1 mph 44% 0 in 754.00 W/m2 unknown
15:14 91.4 °F 68 °F 29.8 in WSW 5.6 mph 8.1 mph 46% 0 in 747.00 W/m2 unknown
15:19 91.4 °F 68 °F 29.8 in West 6.2 mph 8.1 mph 45% 0 in 745.00 W/m2 unknown
15:24 91.4 °F 66.2 °F 29.8 in WSW 5 mph 8.1 mph 44% 0 in 737.00 W/m2 unknown
15:28 91.4 °F 68 °F 29.8 in West 6.2 mph 10.6 mph 44% 0 in 737.00 W/m2 unknown
15:34 91.4 °F 68 °F 29.8 in WSW 6.8 mph 10.6 mph 44% 0 in 722.00 W/m2 unknown
15:39 91.4 °F 68 °F 29.8 in West 8.1 mph 13 mph 44% 0 in 715.00 W/m2 unknown
15:44 91.4 °F 66.2 °F 29.8 in West 8.1 mph 13 mph 43% 0 in 712.00 W/m2 unknown
15:49 91.4 °F 66.2 °F 29.8 in West 8.1 mph 13 mph 44% 0 in 701.00 W/m2 unknown
15:54 91.4 °F 66.2 °F 29.8 in WSW 6.8 mph 9.3 mph 43% 0 in 700.00 W/m2 unknown
15:59 93.2 °F 66.2 °F 29.8 in WSW 6.2 mph 9.3 mph 43% 0 in 696.00 W/m2 unknown
16:04 93.2 °F 66.2 °F 29.8 in WSW 7.5 mph 9.3 mph 42% 0 in 705.00 W/m2 unknown
16:09 91.4 °F 66.2 °F 29.8 in West 7.5 mph 9.3 mph 43% 0 in 708.00 W/m2 unknown
16:14 93.2 °F 66.2 °F 29.8 in WNW 6.2 mph 8.7 mph 43% 0 in 712.00 W/m2 unknown
16:19 91.4 °F 66.2 °F 29.8 in West 5.6 mph 6.8 mph 42% 0 in 693.00 W/m2 unknown
16:24 93.2 °F 66.2 °F 29.8 in West 6.8 mph 10.6 mph 44% 0 in 671.00 W/m2 unknown
16:29 91.4 °F 66.2 °F 29.8 in West 6.8 mph 10.6 mph 43% 0 in 677.00 W/m2 unknown
16:34 93.2 °F 68 °F 29.8 in West 6.8 mph 10.6 mph 44% 0 in 640.00 W/m2 unknown
16:39 93.2 °F 68 °F 29.8 in West 6.8 mph 10.6 mph 44% 0 in 613.00 W/m2 unknown
16:44 93.2 °F 66.2 °F 29.8 in WNW 6.8 mph 10.6 mph 43% 0 in 601.00 W/m2 unknown
16:49 93.2 °F 68 °F 29.8 in West 7.5 mph 9.9 mph 44% 0 in 598.00 W/m2 unknown
16:54 91.4 °F 66.2 °F 29.8 in WNW 6.8 mph 9.3 mph 43% 0 in 557.00 W/m2 unknown
16:59 91.4 °F 68 °F 29.8 in West 6.8 mph 10.6 mph 45% 0 in 315.00 W/m2 unknown
17:04 91.4 °F 68 °F 29.8 in West 6.8 mph 10.6 mph 45% 0 in 548.00 W/m2 unknown
17:09 91.4 °F 68 °F 29.8 in West 6.8 mph 10.6 mph 45% 0 in 541.00 W/m2 unknown
17:14 91.4 °F 66.2 °F 29.8 in WNW 6.2 mph 6.8 mph 44% 0 in 526.00 W/m2 unknown
17:19 93.2 °F 66.2 °F 29.8 in WNW 5 mph 6.8 mph 43% 0 in 526.00 W/m2 unknown
17:24 93.2 °F 66.2 °F 29.8 in WNW 3.7 mph 6.2 mph 43% 0 in 513.00 W/m2 unknown
17:29 93.2 °F 66.2 °F 29.8 in West 4.3 mph 6.2 mph 43% 0 in 490.00 W/m2 unknown
17:34 93.2 °F 66.2 °F 29.8 in West 5 mph 6.2 mph 44% 0 in 473.00 W/m2 unknown
17:39 93.2 °F 68 °F 29.8 in West 5 mph 9.9 mph 46% 0 in 457.00 W/m2 unknown
17:44 93.2 °F 68 °F 29.8 in NNW 4.3 mph 10.6 mph 45% 0 in 434.00 W/m2 unknown
17:49 93.2 °F 68 °F 29.8 in NW 4.3 mph 10.6 mph 44% 0 in 404.00 W/m2 unknown
17:54 93.2 °F 68 °F 29.8 in WSW 4.3 mph 6.2 mph 44% 0 in 404.00 W/m2 unknown
17:59 91.4 °F 68 °F 29.8 in WSW 5 mph 6.2 mph 45% 0 in 392.00 W/m2 unknown
18:04 91.4 °F 68 °F 29.8 in NW 3.1 mph 6.2 mph 46% 0 in 376.00 W/m2 unknown
18:09 91.4 °F 68 °F 29.8 in NNE 3.1 mph 5 mph 45% 0 in 360.00 W/m2 unknown
18:14 91.4 °F 68 °F 29.8 in NNE 3.1 mph 6.2 mph 46% 0 in 345.00 W/m2 unknown
18:19 91.4 °F 68 °F 29.8 in ENE 3.1 mph 6.8 mph 47% 0 in 287.00 W/m2 unknown
18:24 91.4 °F 68 °F 29.8 in NNE 3.1 mph 6.8 mph 47% 0 in 211.00 W/m2 unknown
18:29 91.4 °F 68 °F 29.8 in NNE 3.1 mph 6.8 mph 47% 0 in 330.00 W/m2 unknown
18:33 91.4 °F 69.8 °F 29.8 in NE 3.1 mph 6.8 mph 48% 0 in 329.00 W/m2 unknown
18:39 91.4 °F 69.8 °F 29.8 in North 2.5 mph 3.7 mph 48% 0 in 206.00 W/m2 unknown
18:44 91.4 °F 68 °F 29.8 in ENE 2.5 mph 3.7 mph 47% 0 in 192.00 W/m2 unknown
18:49 91.4 °F 68 °F 29.8 in ENE 1.9 mph 3.7 mph 48% 0 in 192.00 W/m2 unknown
18:54 91.4 °F 68 °F 29.8 in NNE 1.9 mph 3.7 mph 49% 0 in 149.00 W/m2 unknown
18:59 91.4 °F 68 °F 29.8 in North 1.2 mph 3.1 mph 48% 0 in 163.00 W/m2 unknown
19:04 91.4 °F 68 °F 29.8 in Calm   2.5 mph 48% 0 in 123.00 W/m2 unknown
19:09 91.4 °F 68 °F 29.8 in NW 1.2 mph 2.5 mph 48% 0 in 121.00 W/m2 unknown
19:14 89.6 °F 68 °F 29.8 in WNW 1.9 mph 3.7 mph 47% 0 in 153.00 W/m2 unknown
19:19 89.6 °F 68 °F 29.8 in NW 2.5 mph 3.7 mph 48% 0 in 174.00 W/m2 unknown
19:23 91.4 °F 68 °F 29.8 in NW 2.5 mph 3.7 mph 48% 0 in 185.00 W/m2 unknown
19:29 91.4 °F 68 °F 29.8 in North 2.5 mph 3.7 mph 48% 0 in 188.00 W/m2 unknown
19:34 91.4 °F 68 °F 29.8 in NNE 2.5 mph 3.7 mph 48% 0 in 174.00 W/m2 unknown
19:39 91.4 °F 68 °F 29.8 in NE 2.5 mph 3.7 mph 49% 0 in 128.00 W/m2 unknown
19:44 89.6 °F 69.8 °F 29.8 in ENE 3.1 mph 3.7 mph 51% 0 in 77.00 W/m2 unknown
19:49 89.6 °F 69.8 °F 29.8 in ENE 3.7 mph 5 mph 53% 0 in 54.00 W/m2 unknown
19:53 89.6 °F 71.6 °F 29.8 in NE 3.1 mph 5 mph 57% 0 in 49.00 W/m2 unknown
19:59 89.6 °F 71.6 °F 29.8 in NE 3.1 mph 5 mph 59% 0 in 47.00 W/m2 unknown
20:04 87.8 °F 71.6 °F 29.8 in ENE 2.5 mph 3.7 mph 58% 0 in 42.00 W/m2 unknown
20:09 87.8 °F 71.6 °F 29.8 in ENE 3.1 mph 5 mph 57% 0 in 39.00 W/m2 unknown
20:14 87.8 °F 71.6 °F 29.8 in ENE 3.1 mph 5 mph 58% 0 in 35.00 W/m2 unknown
20:19 87.8 °F 71.6 °F 29.8 in ENE 3.1 mph 5 mph 60% 0 in 30.00 W/m2 unknown
20:24 87.8 °F 71.6 °F 29.8 in East 1.9 mph 3.7 mph 60% 0 in 19.00 W/m2 unknown
20:29 87.8 °F 71.6 °F 29.8 in East 2.5 mph 5 mph 60% 0 in 16.00 W/m2 unknown
20:34 86 °F 71.6 °F 29.8 in East 3.1 mph 5 mph 62% 0 in 14.00 W/m2 unknown
20:39 86 °F 71.6 °F 29.8 in East 2.5 mph 5 mph 63% 0 in 12.00 W/m2 unknown
20:44 86 °F 71.6 °F 29.8 in East 1.2 mph 3.1 mph 62% 0 in 9.00 W/m2 unknown
20:49 86 °F 71.6 °F 29.8 in East 1.2 mph 2.5 mph 62% 0 in 7.00 W/m2 unknown
20:54 86 °F 69.8 °F 29.8 in East 1.2 mph 2.5 mph 60% 0 in 5.00 W/m2 unknown
20:59 86 °F 69.8 °F 29.8 in East 1.2 mph 2.5 mph 61% 0 in 0.00 W/m2 unknown
21:04 86 °F 71.6 °F 29.8 in ESE 2.5 mph 3.7 mph 63% 0 in 0.00 W/m2 unknown
21:09 86 °F 69.8 °F 29.8 in ESE 3.7 mph 3.7 mph 63% 0 in 0.00 W/m2 unknown
21:14 84.2 °F 69.8 °F 29.8 in ESE 3.1 mph 3.7 mph 62% 0 in 0.00 W/m2 unknown
21:19 84.2 °F 69.8 °F 29.8 in ESE 3.1 mph 3.7 mph 63% 0 in 0.00 W/m2 unknown
21:24 84.2 °F 69.8 °F 29.8 in ESE 1.9 mph 3.7 mph 63% 0 in 0.00 W/m2 unknown
21:28 84.2 °F 69.8 °F 29.8 in East 1.9 mph 3.7 mph 62% 0 in 0.00 W/m2 unknown
21:33 84.2 °F 69.8 °F 29.8 in East 1.2 mph 2.5 mph 62% 0 in 0.00 W/m2 unknown
21:39 84.2 °F 69.8 °F 29.8 in ESE 1.2 mph 2.5 mph 62% 0 in 0.00 W/m2 unknown
21:44 84.2 °F 69.8 °F 29.8 in ESE 1.2 mph 2.5 mph 62% 0 in 0.00 W/m2 unknown
21:49 84.2 °F 69.8 °F 29.8 in SE 1.2 mph 2.5 mph 61% 0 in 0.00 W/m2 unknown
21:54 84.2 °F 69.8 °F 29.8 in South 1.2 mph 2.5 mph 63% 0 in 0.00 W/m2 unknown
21:59 84.2 °F 69.8 °F 29.8 in SW 1.2 mph 2.5 mph 64% 0 in 0.00 W/m2 unknown
22:04 84.2 °F 69.8 °F 29.8 in SW 1.2 mph 2.5 mph 64% 0 in 0.00 W/m2 unknown
22:09 82.4 °F 69.8 °F 29.8 in SW 1.2 mph 2.5 mph 64% 0 in 0.00 W/m2 unknown
22:14 82.4 °F 69.8 °F 29.8 in WSW 1.2 mph 2.5 mph 64% 0 in 0.00 W/m2 unknown
22:19 82.4 °F 69.8 °F 29.8 in WSW 1.2 mph 2.5 mph 64% 0 in 0.00 W/m2 unknown
22:24 82.4 °F 69.8 °F 29.8 in SSW 1.2 mph 2.5 mph 64% 0 in 0.00 W/m2 unknown
22:29 82.4 °F 69.8 °F 29.8 in South 1.2 mph 2.5 mph 64% 0 in 0.00 W/m2 unknown
22:34 82.4 °F 68 °F 29.8 in SSW 1.9 mph 3.7 mph 63% 0 in 0.00 W/m2 unknown
22:39 82.4 °F 66.2 °F 29.8 in SW 3.1 mph 5 mph 58% 0 in 0.00 W/m2 unknown
22:44 82.4 °F 66.2 °F 29.8 in WSW 3.1 mph 5 mph 57% 0 in 0.00 W/m2 unknown
22:49 82.4 °F 66.2 °F 29.8 in NNE 5.6 mph 9.3 mph 56% 0 in 0.00 W/m2 unknown
22:54 82.4 °F 66.2 °F 29.8 in NE 5.6 mph 9.3 mph 57% 0 in 0.00 W/m2 unknown
22:59 82.4 °F 66.2 °F 29.8 in NE 5 mph 9.3 mph 58% 0 in 0.00 W/m2 unknown
23:04 82.4 °F 68 °F 29.8 in NE 5 mph 9.3 mph 60% 0 in 0.00 W/m2 unknown
23:09 82.4 °F 68 °F 29.8 in ENE 1.9 mph 3.7 mph 62% 0 in 0.00 W/m2 unknown
23:14 82.4 °F 68 °F 29.8 in West 2.5 mph 3.7 mph 62% 0 in 0.00 W/m2 unknown
23:19 82.4 °F 66.2 °F 29.8 in NNW 2.5 mph 3.7 mph 60% 0 in 0.00 W/m2 unknown
23:24 82.4 °F 66.2 °F 29.8 in North 1.9 mph 5 mph 60% 0 in 0.00 W/m2 unknown
23:29 82.4 °F 68 °F 29.8 in NNE 5 mph 9.3 mph 64% 0 in 0.00 W/m2 unknown
23:34 80.6 °F 68 °F 29.8 in ENE 6.2 mph 9.3 mph 65% 0 in 0.00 W/m2 unknown
23:39 80.6 °F 68 °F 29.8 in NE 6.8 mph 9.3 mph 66% 0 in 0.00 W/m2 unknown
23:44 80.6 °F 68 °F 29.8 in NE 7.5 mph 13 mph 66% 0 in 0.00 W/m2 unknown
23:49 80.6 °F 68 °F 29.8 in NE 7.5 mph 13 mph 67% 0 in 0.00 W/m2 unknown
23:54 78.8 °F 68 °F 29.8 in NNE 6.8 mph 11.8 mph 67% 0 in 0.00 W/m2 unknown
23:59 78.8 °F 68 °F 29.8 in NE 6.2 mph 6.8 mph 68% 0 in 0.00 W/m2 unknown
Stazione Meteorologica MeteoMincio Rivalta s/M (MN)
Con i complimenti di Weather Underground - 4 mb



METEO PILLOLE
Il disastro meteorologico più costoso
Bahamas, Florida e Louisiana
Nel 1992 il piccolo ma distruttivo uragano Andrew provoca danni valutati in 25 miliardi di dollari.
Share

Non seguire questo link o sarai bannato dal sito!